Location: ???????
(54.9996°N, 37.9529°E)
Time: 13:47:03
(UTC+00:00)

Meteor 1-27 Rocket - Pass Details

Date: 14 April 2024
Orbit: 829 x 910 km, 81.3° (Epoch: 17 May)

Event Time Altitude Azimuth Distance (km) Brightness Sun altitude
Exits shadow 01:14:48 - 209° (SSW) 2,640 5.7 -10.1°
Reaches altitude 10° 01:15:03 10° 209° (SSW) 2,542 5.7 -10.1°
Maximum altitude 01:20:45 59° 289° (WNW) 1,003 3.9 -9.4°
Drops below altitude 10° 01:26:23 10° 9° (N) 2,504 6.8 -8.7°
Sets 01:28:51 0° 14° (NNE) 3,433 7.6 -8.4°
